Main page
METAR-TAF:

METAR-TAF

Airports :

Moore County Airport

Dumas, Texas, United States

latitude: 35-51-28N, longitude: 102-00-47W, elevation: 3703 ft

Current weather observation

The report was made 10 minutes ago, at 03:15 UTC
Wind 7 mph from the Northwest
Temperature 66°F
Humidity 78%
Pressure 30.12 in. Hg
Visibility: 10 miles
Clear sky

METAR: KDUX 200315Z AUTO 32006KT 10SM CLR 19/15 A3012 RMK AO2 T01860146

Time: 22:25 (03:25 UTC)


TAF: missing

Weather observations and forecasts of more than 4000 airports (METAR and TAF reports).

The available stations are represented by yellow and red dots on the map.

Hover mouse over dot to see the name of the station.

Then click to see weather observations and forecasts.

To change the map : click on the green buttons with a black cross to zoom in, on the green button with a dash to zoom out, or on the green arrows for adjacent maps.


METAR-TAF: